Location: Arthez
(43.0833°N, 0.2500°W)
Time: 01:10:30
(UTC+00:00)

deb Chang Zheng 4 - Pass Details

Date: 23 October 2021
Orbit: 595 x 616 km, 98.6° (Epoch: 06 December)

Event Time Altitude Azimuth Distance (km) Brightness Sun altitude
Rises 17:27:32 0° 148° (SSE) 2,823 6.7 -4.7°
Reaches altitude 10° 17:29:45 10° 142° (SE) 1,928 5.8 -5.1°
Maximum altitude 17:33:43 44° 71° (ENE) 836 3.8 -5.9°
Drops below altitude 10° 17:37:44 10° 359° (N) 1,951 6.0 -6.6°
Sets 17:39:59 0° 353° (N) 2,862 7.0 -7.0°
